Wind_Speed
29 30 30 30 30 30 30 30 30 30 30 30 29 27 25 25 25 21 22 16 16 7 13 14 14 9 7 7 4 8 5 2 2 2 2 3 1 2 1 3 6 7 8 5 3 6 8 8 4 7 3 2 3 6
30 31 32 34 34 33 32 31 30 30 30 30 30 29 27 25 25 23 25 21 17 16 9 9 11 16 18 13 9 16 2 4 10 3 1 1 2 2 2 3 2 3 5 4 7 5 1 17 0 7 4 1 2 3
35 36 36 34 33 33 34 34 33 31 31 30 31 30 30 29 29 29 26 24 17 14 19 24 21 23 24 21 18 8 8 8 6 5 2 1 3 3 3 5 3 4 4 3 3 6 11 17 16 18 11 9 7 7
30 31 32 34 36 39 39 34 33 34 33 32 31 31 31 31 32 35 33 29 22 6 4 7 13 13 12 15 24 23 11 9 6 7 2 2 2 1 3 3 3 1 4 4 7 8 13 22 21 24 22 18 16 12
26 26 25 25 26 28 31 35 38 33 31 31 33 32 30 31 31 37 36 33 27 20 3 2 9 13 11 12 16 19 16 12 6 4 2 3 3 0 2 2 4 9 7 5 9 4 7 2 3 6 23 23 21 18
29 28 27 26 25 24 24 24 25 31 39 36 25 27 33 32 29 39 23 38 31 30 6 3 5 9 10 11 10 10 12 11 7 6 3 4 4 4 3 4 7 20 31 36 16 12 12 13 15 10 10 15 17 19
31 31 30 29 27 26 24 24 23 23 23 29 37 28 23 35 39 39 15 13 26 33 10 3 3 2 9 9 8 9 11 4 5 5 5 4 5 8 2 4 4 16 20 22 25 25 18 23 14 12 13 13 13 15
29 28 29 29 29 27 26 23 22 21 21 22 24 37 30 13 40 38 33 21 30 26 11 3 2 4 10 5 4 6 5 5 6 3 4 4 4 5 5 11 24 17 17 18 19 21 25 20 13 11 13 13 12 14
32 31 29 28 27 26 26 24 22 20 19 18 20 20 21 24 8 13 24 32 39 14 10 6 5 4 13 4 6 5 6 2 7 3 3 6 4 7 9 10 8 8 7 10 13 15 15 19 18 17 12 11 13 13
38 36 33 30 27 26 23 22 18 17 15 14 15 3 2 3 5 20 18 9 5 7 5 3 11 4 11 7 6 6 5 2 2 4 5 3 5 17 30 19 14 18 19 21 17 9 9 13 16 18 18 14 10 9
35 38 38 36 30 26 24 22 17 14 11 6 2 0 11 22 8 3 5 5 5 3 7 8 10 5 11 3 3 6 3 3 2 3 3 3 4 4 5 6 7 11 13 11 17 15 5 1 5 3 1 7 11 11
33 33 33 31 31 27 23 22 18 16 8 8 4 11 16 5 4 3 4 3 3 3 3 2 5 8 8 6 4 5 4 3 4 6 1 4 3 4 1 3 4 6 5 6 12 12 11 10 11 10 10 8 6 9
33 30 29 29 27 27 24 22 20 20 17 12 5 5 4 3 3 4 6 2 2 5 9 8 3 7 5 4 5 3 5 4 8 2 4 4 6 5 3 3 4 4 3 3 2 4 7 8 7 5 4 4 5 7
31 30 28 25 27 26 26 24 22 24 18 5 8 4 4 3 4 3 4 4 6 6 16 15 7 3 4 3 3 4 3 3 3 4 6 2 7 8 8 8 8 11 12 11 11 10 9 7 5 4 4 2 2 2
31 29 29 27 25 26 26 25 28 29 8 5 6 4 5 4 3 3 7 7 6 18 20 10 6 4 2 3 2 3 3 5 6 4 2 8 11 12 11 11 11 12 12 12 12 12 12 11 9 8 6 3 2 0
26 25 25 19 17 26 25 25 37 27 10 7 4 3 4 4 3 3 7 6 12 18 11 3 3 4 4 4 4 7 6 7 2 2 7 12 11 9 11 9 9 9 9 9 8 9 8 8 7 7 6 5 5 5
15 16 15 11 20 26 32 32 19 7 6 7 4 11 13 4 7 8 11 10 21 18 2 2 4 5 3 3 4 4 3 2 7 11 12 11 11 9 7 6 6 6 6 6 6 6 7 8 7 6 5 6 7 7
10 9 9 15 31 34 34 11 9 8 4 3 3 9 16 3 8 5 10 18 15 10 5 3 6 4 4 4 1 1 6 11 11 12 13 12 10 8 5 4 4 4 5 5 4 4 4 4 5 6 7 7 8 8
11 5 16 31 34 20 5 5 5 4 4 4 7 9 6 3 2 1 6 24 3 8 3 1 2 2 3 4 5 9 7 5 9 11 11 9 7 7 5 5 4 4 5 5 4 5 6 6 6 7 7 7 8 8
15 28 31 31 28 6 5 4 5 5 2 3 6 6 8 7 5 10 14 11 6 4 6 4 3 4 5 5 6 4 7 6 11 13 9 7 6 5 5 5 5 4 4 4 4 5 5 5 6 6 7 8 8 9
19 20 18 25 14 8 6 4 5 4 4 5 6 4 5 7 7 7 8 7 9 6 3 7 6 7 7 6 7 8 7 6 6 5 6 6 4 4 4 4 4 3 3 4 4 4 5 6 6 7 8 7 8 8
11 9 11 12 8 5 7 7 5 3 4 4 5 5 6 3 5 5 5 12 6 6 4 3 4 5 8 11 11 11 10 8 9 9 9 6 5 4 4 4 4 4 4 4 5 5 5 6 6 7 7 7 7 7
4 5 6 8 4 6 3 4 4 5 4 2 3 3 3 3 4 5 6 6 5 8 6 8 9 10 11 12 12 12 11 11 11 10 8 7 6 6 6 6 6 5 6 6 6 7 7 7 8 8 8 9 9 8
5 5 8 7 10 2 3 5 5 4 4 3 3 3 3 3 3 5 3 4 5 5 7 7 6 8 9 12 15 15 13 12 9 9 8 6 6 6 7 8 8 8 9 9 10 10 10 10 11 11 11 11 11 11
3 10 7 6 9 6 5 3 4 3 3 4 2 2 2 2 3 3 2 3 6 7 8 8 9 10 11 10 10 12 13 14 14 12 10 9 11 11 11 11 11 11 12 12 12 13 14 14 14 14 14 14 14 12
7 9 6 6 6 4 4 3 4 5 2 2 3 1 2 3 4 3 2 3 4 7 8 10 9 7 9 10 9 10 13 14 15 15 14 14 13 13 14 14 14 12 13 14 14 15 16 16 17 17 16 15 14 15
5 4 6 8 4 4 3 5 5 4 4 4 3 4 2 4 3 2 3 5 8 10 10 8 7 7 7 6 8 11 14 16 19 18 15 13 11 12 15 15 16 16 16 17 18 18 19 20 20 19 19 17 16 14
6 8 5 9 7 9 3 3 4 4 3 7 4 4 3 3 2 2 4 10 11 10 8 8 6 5 7 9 13 16 17 19 19 17 15 11 12 12 13 14 16 17 17 19 20 21 22 23 25 24 23 22 19 13
6 9 4 4 5 7 7 5 4 4 5 4 3 2 3 3 7 12 13 12 9 6 6 8 10 12 14 14 13 15 18 20 21 20 19 18 17 16 15 16 18 17 17 18 17 18 20 22 24 26 25 24 24 23
7 8 3 4 4 4 4 5 4 6 6 6 6 10 11 12 14 16 15 11 9 8 9 12 14 14 15 19 23 20 16 15 14 16 19 21 22 21 21 19 17 19 21 22 24 23 21 22 23 22 23 24 26 26
4 4 4 6 3 3 5 8 13 13 11 11 13 16 11 8 12 14 12 13 20 23 20 18 15 15 20 22 22 22 19 16 16 16 18 20 21 23 23 24 26 26 29 29 27 26 25 24 24 25 25 25 25 24
5 6 3 3 0 2 2 2 4 5 4 3 4 4 4 3 4 11 8 5 18 29 31 24 18 18 21 20 16 15 16 17 18 18 18 22 26 28 29 27 26 24 22 22 24 24 25 26 28 28 27 26 26 25
4 6 6 3 2 2 5 2 2 2 3 2 2 2 2 2 2 7 9 5 15 31 31 18 17 22 22 19 16 15 16 18 18 18 18 21 24 22 20 22 21 28 30 29 27 27 28 28 30 31 32 31 28 25
Wind_Direction
281 282 280 278 277 276 275 274 275 275 273 268 264 264 261 263 255 252 256 250 237 241 261 250 235 199 176 182 168 150 113 209 136 174 214 247 243 201 290 176 176 176 171 195 191 219 267 143 98 174 207 122 151 138
279 277 274 275 278 280 277 273 270 268 267 267 267 264 257 252 257 251 249 248 245 236 264 260 257 247 235 234 204 181 245 175 175 162 225 359 253 136 235 262 325 238 207 187 198 214 197 199 97 222 188 217 215 201
274 275 277 276 276 275 272 274 277 273 268 263 261 258 260 251 246 249 246 245 237 247 268 262 264 254 245 237 229 192 214 196 196 169 131 182 215 128 209 239 208 246 160 214 48 252 230 236 238 246 246 236 234 227
289 285 282 279 274 269 268 273 271 269 272 268 260 257 254 256 245 244 245 240 226 226 264 237 244 243 249 234 226 221 221 186 177 170 132 169 193 155 249 249 214 170 130 207 259 279 285 273 247 249 246 238 233 225
302 301 299 298 294 289 280 270 264 266 267 264 262 258 257 249 248 239 245 246 224 208 234 296 293 272 252 235 225 219 219 210 169 145 136 212 222 121 216 26 233 191 192 192 252 240 236 289 301 263 237 247 239 229
300 300 298 298 298 296 296 289 288 274 263 263 267 256 256 251 236 216 214 225 230 211 225 261 236 230 226 211 203 196 202 193 180 160 194 235 218 180 243 239 246 214 226 236 249 272 282 273 290 284 248 245 246 241
299 296 294 293 291 290 290 291 293 288 287 271 257 265 266 245 230 202 208 224 211 197 178 233 187 117 128 148 159 166 182 186 163 178 222 227 199 198 235 238 227 245 253 256 258 267 277 267 260 265 254 248 243 239
305 303 298 293 289 287 286 285 285 288 289 291 285 260 261 287 234 212 212 184 175 172 168 222 117 150 161 143 123 153 156 169 203 230 201 211 166 218 252 248 254 269 281 276 272 273 270 264 260 261 260 253 244 235
301 299 295 293 290 282 280 280 281 284 289 291 297 298 278 255 253 224 196 163 170 166 176 186 172 183 156 134 134 151 167 170 185 231 220 182 197 223 233 244 260 291 280 288 303 300 275 252 243 247 258 256 243 236
294 293 290 287 283 281 270 268 269 270 281 282 301 256 236 219 209 169 140 178 180 199 189 184 151 161 150 152 170 137 180 210 200 221 165 228 255 244 252 256 258 268 272 272 276 281 273 262 249 244 249 248 256 255
295 287 280 279 279 272 268 253 254 256 252 249 240 142 140 147 132 136 144 176 202 222 200 188 170 129 174 138 143 191 169 156 222 218 170 247 255 225 231 259 278 286 290 263 252 244 248 107 67 103 211 243 241 246
302 296 289 278 266 264 257 243 239 232 208 186 174 128 160 203 174 163 190 177 199 222 105 91 88 118 137 149 118 175 171 156 238 137 123 257 250 136 203 296 317 316 303 249 230 231 238 257 283 281 269 263 257 236
297 297 292 284 265 248 243 231 223 221 204 156 147 144 178 177 234 219 166 132 220 152 168 156 104 121 130 165 102 160 165 208 123 185 231 238 131 125 91 104 56 47 70 103 175 238 260 268 268 263 255 251 237 225
297 293 291 284 274 233 231 214 211 206 188 156 152 164 194 196 245 184 171 171 156 157 150 137 113 128 140 169 136 166 152 119 216 231 230 210 140 132 113 105 101 83 78 77 75 72 70 77 107 135 169 190 204 225
290 284 283 280 268 218 214 198 199 194 159 153 170 210 199 207 65 115 133 124 131 156 146 109 87 130 161 127 193 101 152 225 213 234 181 130 137 132 119 106 96 90 83 79 74 71 69 70 75 77 74 67 64 97
299 282 273 274 242 194 194 180 176 182 162 164 204 131 113 136 142 174 172 151 162 152 134 114 152 166 189 168 167 209 176 218 232 45 117 134 127 125 117 109 94 86 78 70 62 55 48 44 43 39 30 18 4 348
306 274 292 279 187 175 172 159 164 166 184 185 186 206 177 154 162 183 197 187 169 149 181 164 204 209 90 191 219 195 220 29 110 103 122 133 135 130 120 108 96 78 64 54 46 40 34 28 24 15 355 348 339 326
330 305 306 167 157 157 151 149 153 172 197 166 148 172 187 158 170 167 192 178 158 193 182 216 142 200 212 203 199 64 90 88 115 125 124 129 133 130 120 98 82 71 65 58 54 51 45 31 17 11 2 351 343 332
357 2 148 165 158 136 109 129 155 120 75 116 113 122 148 144 100 168 208 182 145 176 213 207 257 24 37 19 358 37 56 152 131 119 113 116 114 110 103 95 77 68 76 77 62 52 45 38 29 16 5 350 345 336
114 130 152 161 149 98 80 65 97 107 101 110 105 102 95 77 93 100 133 157 132 67 44 39 40 36 8 13 27 49 71 128 136 118 106 100 96 97 97 85 83 75 75 79 71 33 45 34 26 18 10 351 345 342
103 83 109 152 82 72 82 56 61 72 93 86 100 77 79 81 66 59 48 53 62 35 69 54 77 72 70 75 82 87 103 123 108 135 145 121 103 90 77 76 82 68 57 56 49 47 35 32 20 5 6 3 354 344
59 46 47 42 54 62 69 44 73 65 71 79 61 63 52 55 52 41 50 50 56 35 45 64 71 80 83 74 72 77 84 89 90 89 98 100 86 66 61 53 43 33 25 24 20 19 17 8 354 352 345 336 337 333
360 9 38 29 76 54 23 43 72 31 68 45 51 57 40 62 61 43 74 62 75 33 65 86 88 85 80 73 75 75 74 70 65 62 60 61 55 41 26 18 12 2 347 345 343 342 339 336 331 331 332 330 323 319
19 47 33 35 31 21 18 40 47 58 61 48 54 73 39 67 80 65 76 69 42 69 82 84 72 68 75 74 65 56 50 45 42 39 30 14 356 348 345 343 340 332 327 324 322 320 317 318 318 316 315 314 316 315
73 15 22 9 18 14 32 25 14 37 65 26 80 76 55 66 68 64 66 83 62 68 65 77 98 95 84 67 54 52 45 37 29 17 5 349 330 321 319 321 319 313 308 306 306 307 308 308 308 309 308 307 305 306
71 24 38 3 5 23 2 37 26 9 31 66 60 83 69 68 68 57 56 65 78 87 97 94 86 75 76 74 60 39 22 10 4 357 350 341 337 337 338 337 334 333 326 321 315 307 303 301 302 303 301 297 298 295
59 2 26 26 360 341 52 44 29 39 41 25 360 337 75 71 76 86 105 113 112 102 89 74 75 76 58 34 4 350 344 341 343 342 341 336 330 329 333 332 331 329 325 318 312 308 304 301 300 299 299 295 292 290
58 33 32 5 44 34 37 42 29 18 3 345 300 32 60 35 86 125 120 124 116 100 79 69 52 15 346 332 326 322 320 323 328 330 330 325 328 327 326 320 320 326 321 313 310 310 305 304 306 305 302 297 298 279
38 360 14 32 52 50 40 20 16 5 336 343 355 66 82 73 125 123 124 123 116 76 29 357 338 329 324 327 330 329 327 327 331 336 338 340 338 342 335 331 327 324 319 314 312 306 303 302 303 303 304 302 295 287
12 19 64 51 51 36 13 15 19 39 64 80 96 103 94 99 114 119 113 89 42 9 1 355 345 342 340 335 332 333 339 339 339 337 335 334 334 333 332 333 332 326 319 313 312 309 303 299 294 290 288 284 282 282
10 45 74 55 80 45 57 74 70 68 74 82 105 110 110 108 119 126 111 56 34 22 9 359 350 340 336 336 333 330 333 336 335 336 333 333 332 329 330 328 325 320 317 316 315 313 310 302 296 293 291 289 288 286
31 45 90 90 157 52 29 59 74 100 110 90 78 101 109 114 142 177 180 19 11 2 358 346 335 334 335 331 324 319 321 325 327 328 334 333 328 327 324 321 321 318 317 313 309 304 300 297 296 296 295 291 288 286
49 44 60 80 74 40 17 31 70 91 86 91 102 120 121 136 152 193 215 280 343 343 337 336 332 330 334 329 322 319 320 320 319 321 317 324 321 316 319 324 315 312 308 309 310 308 304 300 295 291 285 280 281 283
Height
1449 1448 1448 1447 1446 1445 1445 1445 1445 1445 1445 1446 1446 1447 1448 1449 1450 1452 1452 1453 1455 1453 1448 1447 1447 1447 1448 1451 1455 1458 1462 1463 1465 1470 1466 1456 1458 1455 1453 1446 1450 1450 1455 1457 1454 1445 1448 1420 1425 1426 1417 1415 1415 1416
1441 1440 1439 1439 1438 1438 1437 1436 1435 1435 1435 1436 1438 1439 1440 1441 1442 1445 1445 1447 1449 1449 1445 1442 1442 1443 1443 1444 1446 1450 1449 1448 1449 1454 1456 1455 1457 1459 1455 1452 1448 1448 1435 1435 1434 1429 1419 1418 1416 1414 1415 1415 1416 1417
1433 1432 1430 1429 1429 1428 1428 1428 1428 1427 1427 1427 1428 1430 1432 1433 1434 1435 1438 1440 1443 1444 1440 1436 1435 1436 1437 1438 1440 1443 1444 1443 1445 1445 1448 1451 1456 1449 1456 1450 1437 1437 1435 1437 1432 1415 1413 1413 1413 1414 1414 1414 1414 1416
1422 1421 1420 1419 1418 1418 1418 1418 1417 1417 1417 1417 1418 1420 1422 1424 1425 1425 1426 1431 1438 1440 1438 1430 1430 1431 1430 1431 1434 1435 1437 1439 1442 1444 1447 1451 1454 1443 1446 1439 1438 1433 1433 1432 1427 1413 1411 1407 1406 1406 1409 1411 1411 1412
1415 1414 1412 1410 1409 1408 1406 1406 1407 1407 1407 1406 1408 1410 1412 1414 1417 1417 1418 1420 1426 1435 1431 1429 1427 1426 1427 1427 1429 1431 1434 1436 1438 1442 1445 1448 1443 1445 1439 1441 1430 1423 1420 1424 1408 1404 1403 1401 1401 1400 1403 1403 1406 1408
1410 1408 1407 1404 1402 1401 1400 1399 1398 1396 1397 1398 1398 1396 1401 1403 1409 1408 1412 1410 1415 1423 1431 1429 1424 1421 1423 1425 1427 1431 1432 1433 1436 1438 1441 1439 1437 1440 1443 1433 1405 1401 1402 1401 1399 1400 1401 1401 1402 1402 1401 1402 1403 1404
1403 1401 1400 1398 1397 1395 1394 1393 1392 1390 1389 1388 1389 1391 1390 1391 1392 1392 1394 1396 1402 1414 1423 1424 1418 1420 1423 1424 1426 1430 1431 1433 1435 1437 1437 1435 1435 1435 1433 1425 1395 1396 1396 1398 1398 1399 1398 1397 1398 1399 1399 1400 1401 1402
1395 1393 1391 1390 1389 1389 1388 1387 1386 1385 1383 1382 1381 1380 1384 1384 1380 1380 1382 1388 1395 1405 1413 1412 1414 1421 1421 1423 1427 1428 1431 1434 1434 1433 1432 1431 1432 1430 1421 1395 1389 1391 1393 1393 1393 1393 1393 1394 1395 1394 1395 1397 1398 1399
1387 1385 1383 1381 1380 1380 1381 1382 1381 1380 1379 1378 1376 1375 1375 1378 1376 1373 1377 1381 1384 1394 1398 1401 1401 1411 1418 1421 1424 1427 1428 1430 1430 1429 1427 1427 1421 1415 1393 1386 1387 1388 1388 1388 1388 1388 1387 1387 1389 1390 1392 1393 1394 1396
1376 1374 1373 1372 1372 1372 1372 1374 1375 1375 1375 1374 1375 1373 1371 1371 1376 1380 1385 1387 1385 1382 1386 1388 1391 1403 1409 1415 1419 1423 1424 1423 1424 1422 1423 1421 1402 1387 1381 1382 1381 1382 1383 1383 1384 1384 1383 1383 1384 1385 1387 1390 1391 1393
1362 1361 1361 1361 1362 1363 1364 1366 1368 1370 1371 1371 1372 1373 1373 1376 1378 1381 1383 1385 1385 1382 1382 1381 1385 1397 1405 1409 1412 1415 1418 1420 1420 1418 1421 1412 1392 1377 1376 1377 1377 1377 1376 1376 1378 1380 1381 1381 1381 1382 1384 1385 1387 1390
1352 1350 1348 1347 1350 1353 1356 1359 1363 1365 1366 1368 1370 1373 1377 1376 1375 1378 1380 1379 1379 1379 1381 1381 1384 1389 1399 1402 1406 1412 1412 1417 1416 1415 1422 1406 1380 1375 1375 1376 1376 1375 1374 1374 1375 1377 1378 1379 1380 1381 1382 1383 1385 1386
1341 1338 1337 1336 1337 1341 1346 1350 1356 1358 1362 1365 1369 1372 1374 1374 1374 1370 1372 1375 1377 1378 1378 1379 1384 1389 1398 1399 1402 1406 1408 1413 1411 1414 1404 1384 1375 1376 1376 1375 1376 1376 1375 1374 1375 1375 1376 1376 1377 1378 1380 1381 1383 1384
1329 1327 1326 1325 1325 1330 1336 1342 1349 1352 1359 1361 1364 1370 1371 1371 1368 1363 1365 1366 1369 1370 1374 1378 1384 1389 1393 1396 1397 1401 1401 1406 1409 1407 1386 1372 1373 1375 1376 1377 1377 1376 1375 1375 1375 1375 1376 1376 1377 1378 1379 1381 1382 1384
1316 1315 1314 1313 1314 1319 1328 1337 1342 1348 1353 1358 1360 1361 1364 1360 1361 1361 1362 1364 1366 1369 1373 1378 1383 1387 1389 1393 1394 1399 1401 1398 1393 1378 1369 1372 1374 1374 1376 1377 1378 1377 1377 1377 1378 1378 1379 1379 1380 1380 1381 1381 1382 1383
1303 1302 1301 1304 1305 1313 1323 1332 1339 1345 1349 1353 1354 1356 1356 1358 1361 1362 1363 1365 1366 1370 1374 1376 1379 1381 1381 1382 1390 1386 1385 1378 1367 1369 1371 1372 1376 1379 1377 1378 1379 1379 1379 1379 1380 1380 1381 1382 1381 1381 1382 1383 1383 1383
1296 1295 1297 1298 1302 1311 1319 1327 1337 1342 1345 1345 1346 1347 1350 1350 1352 1356 1359 1361 1366 1371 1372 1373 1375 1373 1375 1377 1377 1371 1371 1370 1370 1373 1372 1373 1376 1380 1380 1380 1380 1380 1380 1381 1381 1381 1381 1382 1382 1382 1383 1382 1382 1382
1296 1296 1296 1298 1304 1310 1321 1328 1335 1339 1340 1341 1342 1344 1348 1349 1350 1352 1355 1359 1364 1366 1366 1365 1365 1369 1365 1362 1366 1370 1372 1373 1374 1374 1373 1375 1377 1379 1380 1381 1382 1382 1381 1382 1382 1382 1382 1382 1382 1382 1383 1382 1382 1381
1299 1298 1299 1301 1308 1315 1322 1330 1333 1335 1340 1341 1343 1345 1347 1350 1352 1352 1355 1358 1361 1362 1363 1363 1361 1366 1374 1379 1378 1376 1376 1375 1376 1376 1377 1379 1379 1380 1381 1382 1383 1384 1383 1382 1383 1383 1381 1381 1381 1381 1381 1381 1381 1381
1307 1304 1305 1308 1313 1318 1325 1331 1333 1335 1340 1343 1344 1346 1349 1353 1354 1354 1355 1358 1360 1362 1368 1375 1382 1385 1385 1384 1383 1382 1381 1380 1378 1379 1381 1381 1381 1382 1382 1383 1383 1385 1384 1383 1383 1383 1381 1381 1381 1380 1380 1380 1380 1379
1318 1316 1315 1316 1318 1322 1330 1334 1336 1339 1341 1344 1347 1348 1353 1354 1356 1358 1361 1362 1365 1378 1384 1387 1387 1387 1386 1385 1384 1383 1382 1382 1381 1381 1382 1383 1384 1383 1384 1384 1384 1385 1384 1383 1383 1382 1381 1380 1380 1380 1380 1379 1379 1378
1326 1325 1322 1322 1325 1329 1334 1338 1339 1342 1345 1348 1349 1352 1356 1359 1362 1366 1368 1370 1383 1389 1389 1389 1389 1388 1388 1387 1385 1384 1385 1385 1384 1384 1383 1385 1385 1385 1385 1385 1384 1384 1384 1383 1382 1381 1380 1379 1379 1379 1378 1378 1377 1377
1330 1329 1329 1330 1332 1336 1344 1342 1343 1346 1351 1353 1355 1358 1362 1365 1369 1370 1377 1386 1391 1392 1391 1391 1391 1391 1390 1390 1389 1389 1388 1387 1387 1387 1387 1387 1387 1387 1386 1385 1384 1384 1384 1383 1381 1380 1379 1378 1378 1377 1377 1376 1375 1374
1331 1331 1335 1338 1342 1346 1346 1346 1348 1351 1353 1357 1360 1365 1368 1369 1372 1376 1386 1392 1395 1394 1394 1394 1394 1394 1394 1394 1392 1392 1391 1391 1390 1389 1388 1389 1388 1387 1386 1385 1383 1383 1382 1380 1379 1378 1377 1376 1375 1375 1374 1373 1372 1371
1336 1349 1350 1352 1352 1351 1352 1354 1356 1356 1361 1361 1363 1367 1370 1370 1376 1385 1390 1396 1397 1396 1396 1396 1396 1396 1396 1396 1395 1395 1395 1393 1391 1390 1390 1389 1388 1386 1384 1382 1381 1379 1378 1377 1375 1374 1373 1372 1372 1371 1370 1370 1369 1368
1352 1363 1364 1364 1363 1361 1363 1363 1364 1365 1364 1366 1369 1370 1370 1375 1383 1393 1396 1398 1398 1398 1398 1398 1399 1399 1398 1398 1397 1396 1395 1394 1393 1392 1389 1387 1385 1383 1381 1379 1377 1376 1374 1373 1371 1370 1369 1368 1368 1367 1366 1366 1365 1363
1365 1371 1371 1371 1370 1369 1370 1371 1371 1372 1373 1375 1376 1372 1372 1381 1391 1398 1399 1399 1400 1401 1401 1401 1401 1400 1400 1399 1398 1397 1395 1393 1392 1390 1387 1385 1383 1380 1379 1376 1374 1373 1371 1369 1367 1366 1365 1364 1363 1362 1361 1360 1360 1359
1374 1375 1376 1377 1376 1377 1377 1379 1381 1384 1384 1383 1381 1382 1384 1388 1396 1399 1400 1401 1402 1403 1403 1403 1403 1402 1401 1399 1397 1395 1393 1390 1388 1386 1384 1383 1380 1377 1375 1373 1371 1369 1368 1365 1363 1361 1360 1359 1357 1356 1355 1354 1354 1354
1380 1380 1380 1380 1381 1384 1388 1390 1390 1390 1389 1387 1385 1388 1394 1396 1398 1399 1402 1404 1405 1405 1404 1404 1402 1401 1399 1397 1395 1392 1389 1386 1382 1379 1377 1376 1374 1374 1371 1369 1367 1365 1363 1361 1360 1359 1357 1355 1353 1351 1350 1348 1347 1346
1384 1383 1383 1386 1389 1394 1395 1393 1392 1391 1389 1389 1391 1394 1396 1399 1401 1403 1405 1407 1407 1405 1404 1402 1400 1397 1395 1392 1390 1388 1386 1383 1381 1379 1375 1373 1371 1369 1367 1365 1363 1361 1358 1356 1353 1351 1350 1348 1346 1344 1343 1342 1341 1339
1386 1386 1387 1391 1395 1397 1396 1395 1394 1393 1393 1394 1395 1396 1398 1402 1405 1406 1406 1406 1405 1404 1402 1400 1397 1395 1393 1390 1386 1383 1381 1380 1378 1376 1374 1371 1368 1366 1363 1361 1358 1354 1351 1348 1345 1343 1340 1339 1337 1335 1333 1332 1331 1331
1388 1389 1391 1396 1397 1397 1396 1395 1396 1398 1399 1399 1400 1400 1402 1402 1404 1405 1405 1404 1403 1401 1400 1397 1395 1393 1390 1387 1384 1382 1379 1377 1374 1372 1370 1368 1364 1361 1357 1354 1351 1348 1344 1341 1338 1335 1333 1331 1328 1326 1325 1323 1322 1322
1392 1393 1394 1395 1396 1397 1397 1397 1397 1398 1399 1400 1401 1401 1402 1403 1403 1405 1405 1404 1404 1401 1398 1395 1393 1389 1386 1383 1380 1378 1376 1374 1371 1369 1366 1364 1361 1357 1354 1350 1346 1341 1337 1333 1330 1326 1323 1320 1318 1316 1315 1314 1313 1313